This demonstration page uses our WeatherBlox Daily Observations layout. Learn more.

Left ArrowRight Arrow

39.01783, -85.05884

Hourly Observations for June 6, 2015

Temp ( °F °C ) Dew Point ( °F °C ) Humidity (%) Winds ( mph kmh ) Pressure ( in mb ) Visibility ( mi km ) Precip ( " mm )
12:52 am 00:52 Mostly Clear 69 20.6 62 16.7 78 78 NW 7 11 29.97 1015 10 16 N/A
1:52 am 01:52 Mostly Clear 68 20 60 15.6 76 76 NNW 8 13 29.97 1015 10 16 N/A
2:52 am 02:52 Clear 67 19.4 60 15.6 79 79 N 10 17 29.98 1015 10 16 N/A
3:52 am 03:52 Partly Cloudy 65 18.3 61 16.1 87 87 N 6 9 29.98 1015 9 14 N/A
4:20 am 04:20 Mostly Cloudy 66 19 63 17 88 88 NE 8 13 30.00 1016 8 13 N/A
4:52 am 04:52 Cloudy with Haze 67 19.4 62 16.7 84 84 NNE 8 13 30.00 1016 5 8 N/A
5:52 am 05:52 Cloudy with Haze 67 19.4 62 16.7 84 84 NE 10 17 30.00 1016 5 8 N/A
6:52 am 06:52 Cloudy with Haze 66 18.9 61 16.1 84 84 N 10 17 30.01 1016 5 8 N/A
7:52 am 07:52 Cloudy with Haze 66 18.9 60 15.6 81 81 N 10 17 30.03 1017 6 10 N/A
8:52 am 08:52 Cloudy 65 18.3 59 15 81 81 NNE 14 22 30.06 1018 7 11 N/A
9:42 am 09:42 Mostly Cloudy 66 19 59 15 78 78 NE 9 15 30.06 1018 7 11 N/A
9:52 am 09:52 Mostly Cloudy 68 20 59 15 73 73 ENE 12 19 30.07 1018 7 11 N/A
10:52 am 10:52 Mostly Cloudy 70 21.1 60 15.6 71 71 ENE 13 20 30.07 1018 7 11 N/A
11:52 am 11:52 Mostly Cloudy 71 21.7 59 15 66 66 N 8 13 30.06 1018 7 11 N/A
12:52 pm 12:52 Mostly Cloudy 73 22.8 60 15.6 64 64 NE 5 7 30.06 1018 7 11 N/A
1:52 pm 13:52 Mostly Cloudy 76 24.4 60 15.6 58 58 N 10 17 30.04 1017 8 13 N/A
2:18 pm 14:18 Mostly Cloudy 77 25 61 16 57 57 E 6 9 30.03 1017 8 13 N/A
2:52 pm 14:52 Mostly Cloudy 77 25 60 15.6 56 56 NE 5 7 30.03 1017 8 13 N/A
3:52 pm 15:52 Mostly Cloudy 79 26.1 60 15.6 52 52 NE 10 17 30.03 1017 8 13 N/A
4:52 pm 16:52 Mostly Cloudy 78 25.6 60 15.6 54 54 NE 8 13 30.02 1017 9 14 N/A
5:52 pm 17:52 Mostly Cloudy 78 25.6 61 16.1 56 56 NE 12 19 30.01 1016 8 13 N/A
6:52 pm 18:52 Partly Cloudy 77 25 60 15.6 56 56 NE 9 15 30.00 1016 9 14 N/A
7:52 pm 19:52 Partly Cloudy 74 23.3 59 15 60 60 E 7 11 30.01 1016 9 14 N/A
8:52 pm 20:52 Partly Cloudy 71 21.7 60 15.6 68 68 ESE 7 11 30.01 1016 8 13 N/A
9:52 pm 21:52 Partly Cloudy 69 20.6 61 16.1 76 76 ESE 8 13 30.01 1016 8 13 N/A
10:52 pm 22:52 Hazy 68 20 62 16.7 81 81 SE 9 15 30.01 1016 6 10 N/A
11:52 pm 23:52 Hazy 65 18.3 60 15.6 84 84 SE 6 9 30.01 1016 5 8 N/A

Powered by AerisWeather